Regional Weather Roundup
Issued by NWS Upton, NY

Current Version | Previous Version | Graphics & Text | Print | Product List | Glossary Off
Versions: 1 2 3 4 5 6 7 8 9 10 11 12 13 14 15 16 17 18 19 20 21 22 23 24 25 26 27

000
ASUS41 KOKX 300308
RWROKX

REGIONAL WEATHER ROUNDUP
NATIONAL WEATHER SERVICE NEW YORK NY
1100 PM EDT SAT APR 29 2017

NOTE: "FAIR" INDICATES FEW OR NO CLOUDS BELOW 12,000 FEET WITH NO
SIGNIFICANT WEATHER AND/OR OBSTRUCTIONS TO VISIBILITY.

NYZ071-072-176-178-NJZ106-104-300400-
NEW YORK CITY METRO AREA

CITY           SKY/WX    TMP DP  RH WIND       PRES   REMARKS
Central Park   CLOUDY    72  56  57 VRB3      30.12R
Wall St Helipt CLOUDY    72  55  56 CALM      30.10S
Bronx Bot Gard   N/A     70  54  56 N6        30.11S
LaGuardia APRT CLOUDY    73  55  53 N16       30.08R
Kennedy INTL   MOCLDY    75  57  53 N10       30.09R
Breezy Point     N/A     72 N/A N/A NW9         N/A
Newark/Liberty MOCLDY    75  56  51 N14       30.09R
Teterboro      CLOUDY    71  56  58 N14G20    30.09R
$$

NYZ177-179-078>081-300400-
LONG ISLAND NEW YORK

CITY           SKY/WX    TMP DP  RH WIND       PRES   REMARKS
Jones Beach      N/A     70 N/A N/A N12         N/A
Matinecock PT    N/A     68 N/A N/A NW12        N/A
Farmingdale    PTCLDY    71  55  56 N13       30.09R
MacArthur/ISP  MOCLDY    70  55  59 N10       30.08R
Shirley        CLEAR     68  54  60 N6        30.09
Mt Sinai Harb    N/A     63 N/A N/A MISG        N/A
Westhampton    CLEAR     68  53  58 NW8       30.10R
East Hampton     N/A     67  54  63 N3        30.08R
Montauk        NOT AVBL
$$

NYZ052-065-067-300400-
HUDSON VALLEY

CITY           SKY/WX    TMP DP  RH WIND       PRES   REMARKS
White Plains   CLEAR     67  53  61 NW14      30.10R
Larchmont Harb   N/A     68 N/A N/A NW13G18     N/A
Croton O-T Hud   N/A     64 N/A N/A NW10        N/A
Newburgh       CLEAR     63  52  67 NW12      30.14R
Montgomery     CLEAR     64  49  57 VRB7      30.12R
Poughkeepsie   CLOUDY    64  54  69 NW6       30.11R
Albany         CLEAR     54  34  46 W18       30.16R
$$

NJZ001-105-106-008-010-013-015-019>022-104-300400-
NEW JERSEY

CITY           SKY/WX    TMP DP  RH WIND       PRES   REMARKS
Newark/Liberty MOCLDY    75  56  51 N14       30.09R
Teterboro      CLOUDY    71  56  58 N14G20    30.09R
Caldwell       CLOUDY    71  55  56 CALM      30.12R
Somerville     CLEAR     69  58  67 N5        30.09R
Linden         MOCLDY    73  55  53 N6        30.09S
Perth Amboy      N/A     73 N/A N/A N6          N/A
Sussex         CLEAR     62  52  69 CALM      30.17R
Andover          N/A     65  54  67 VRB7      30.14R
Trenton        CLEAR     71  62  73 N7        30.09R
Millville      CLEAR     67  65  93 CALM      30.08R
Atlantic City  CLEAR     69  59  70 CALM      30.08S
Wrightstown    CLEAR     69  62  77 N8        30.07R
Toms River     PTCLDY    67  61  81 CALM      30.09R
Belmar         PTCLDY    74  61  63 N8        30.10R
$$

PAZ047>061-062-071-300400-
EASTERN PENNSYLVANIA

CITY           SKY/WX    TMP DP  RH WIND       PRES   REMARKS
Philadelphia   CLOUDY    73  62  68 CALM      30.08S
Allentown      CLEAR     65  55  70 NW5       30.12R
Scranton       PTCLDY    60  52  74 N5        30.17R
$$

CTZ002-004>006-009-010-012-RIZ004-006-007-MAZ004-011-015-300400-
SOUTHERN NEW ENGLAND
 IN CT

CITY           SKY/WX    TMP DP  RH WIND       PRES   REMARKS
Bradley INTL   PTCLDY    64  43  46 W14       30.06F
Hartford       CLEAR     67  48  50 W5        30.07F
Danbury        CLEAR     64  52  64 N6        30.12R
Wtrbury/Oxford CLOUDY    63  46  55 NW3       30.11R
Bridgeport     CLEAR     70  54  56 N3        30.08R
Meriden        CLEAR     67  51  56 NW6       30.09R
New Haven      CLEAR     68  52  56 NW6       30.08S
Chester          N/A     66  52  59 NW6       30.08S
Groton         CLEAR     67  52  58 N7        30.05R
Wilimantic     PTCLDY    67  46  47 VRB7      30.07S

 IN RI

CITY           SKY/WX    TMP DP  RH WIND       PRES   REMARKS
Providence     CLOUDY    68  47  46 W12G24    30.03F
Block Island   PTCLDY    65  53  65 NW8G17    30.07R
Westerly       CLEAR     69  51  52 VRB6      30.07R
 IN MA

CITY           SKY/WX    TMP DP  RH WIND       PRES   REMARKS
Boston         PTCLDY    68  42  38 W15       30.01R
Worcester      CLEAR     61  37  41 W13       30.05R
Westfield      CLEAR     62  40  44 NW9       30.07R
Provincetown   CLOUDY    57  48  72 W13       29.99R
Nantucket      CLOUDY    62  52  69 W13       30.01R
$$

ANZ330-335-338-340-345-350-353-355-300400-
COASTAL MARINE OBSERVATIONS


STATION/POSITION TIME  SKY/WX   TEMP    WIND        PRES    VSBY  WAVE
                                AIR SEA DIR/SP/G                  HT/PER
                 (UTC)          (F)     (DEG/KT/KT) (MB)    (MI)  (FT/S)
NY HARB ENTRANCE 0150            63 53  300/  6/  8 1018.0          3/ 6
20 S FIRE ISLAND 0250            58 51  300/  6/  8 1017.9          4/ 7
GREAT SOUTH BAY  0215            72 62  330/ 14/ 21   N/A
23 SSW MONTAUK P 0150            54 48              1017.4          4/ 7
15 E BARNEGAT LI 0230               56                N/A           4/ 7
HUDSON CANYON    0150            53 50  220/ 10/ 10 1018.0          5/ 7
KINGS POINT      0236            68 54   50/ 10/ 12 1018.7
EXECUTION ROCKS  NOT AVBL
CENTRAL LI SOUND NOT AVBL
EASTERN LI SOUND NOT AVBL
ROBBINS REEF     0236            74     340/  7/  9 1019.1
$$


>>>>>>>>>>>>>>>>>>>>>>>>>>>> KEY <<<<<<<<<<<<<<<<<<<<<<<<<<<
>                                                          <
>     SKY/WX - Sky Condition/Present Weather               <
>     TMP    - Temperature in Fahrenheit                   <
>     DP     - Dew Point in Fahrenheit                     <
>     RH     - Relative Humidity in Percent                <
>     WIND   - Direction (from) and Speed in MPH           <
>     PRES   - Mean Sea Level Pressure (inches of Hg)      <
>     WCI    - Wind Chill Index                            <
>     VSB    - VISIBILITY IN MILES                         <
>     HX     - HEAT INDEX                                  <
>     TC     - TEMPERATURE IN CELSIUS                      <
>     VRB    - VARIABLE WIND DIRECTION                     <
>                                                          <
>>>>>>>>>>>>>>>>>>>>>>>>>>>> KEY <<<<<<<<<<<<<<<<<<<<<<<<<<<




USA.gov is the U.S. government's official web portal to all federal, state and local government web resources and services.